[[{"header":{"parameterUnit":"m.s-1","parameterCategory":1,"la1":30.2991,"la2":30.254,"lo1":-89.0895,"lo2":-89.0444,"dy":0.0017,"dx":0.0017,"nx":28,"ny":28,"refTime":"2025-06-10T03:00:00:Z","depth":0,"parameterNumber":2,"parameterNumberName":"U-component_of_WINDS"},"data":[0,0,0,0,0,0,0,0,0,0,0,0,0,0,0,0,0,0,0,0,0,0,0,0,0,0,0,0,0,0,0,0,0,0,0,0,0,0,0,0,0,0,0,0,0,0,0,0,0,0,0,0,0,0,0,0,0,0,3.1393,3.1395,0,3.1555,3.1556,3.1558,3.1563,3.1561,3.1559,3.1557,3.1719,3.1725,3.1731,0,0,0,0,0,0,0,0,0,0,0,0,0,3.1085,3.1091,3.1393,3.1395,3.1397,3.1554,3.1557,3.1559,3.1563,3.1561,3.1559,3.1556,3.1717,3.1724,3.1732,0,0,0,0,0,0,0,0,0,0,0,0,0,3.123,3.1092,3.1393,3.1418,3.1422,3.1554,3.1557,3.1559,3.1564,3.1561,3.1558,3.1555,3.1715,3.1724,3.1733,3.1848,0,0,3.1761,3.1765,0,0,0,0,0,0,0,0,3.1222,3.1241,3.1413,3.1417,3.1422,3.1536,3.1507,3.1656,3.1565,3.151,3.1557,3.1554,3.166,3.1674,3.171,3.1856,3.1863,3.1762,3.1767,3.1771,3.1774,0,0,0,0,0,0,0,3.1211,3.1234,3.1457,3.1415,3.1421,3.1421,3.1438,3.1536,3.16,3.1515,3.1515,3.1535,3.1662,3.1702,3.1714,3.1865,3.1762,3.177,3.1775,3.1779,3.2112,3.2115,0,0,0,0,0,0,3.1197,3.1226,3.1452,3.1462,3.1312,3.1429,3.1448,3.1502,3.1599,3.1611,3.1537,3.1534,3.1687,3.1704,3.172,3.186,3.1771,3.178,3.1785,3.2108,3.2112,3.2116,0,0,0,0,0,0,3.119,3.1217,3.1445,3.1344,3.1373,3.1437,3.1498,3.1507,3.1546,3.1616,3.1627,3.1566,3.1686,3.1707,3.1816,3.1865,3.1784,3.1792,3.2104,3.211,3.2114,3.2141,0,0,0,0,0,0,3.1181,3.1215,3.126,3.1345,3.1379,3.154,3.1501,3.1512,3.1562,3.156,3.1645,3.1657,3.1685,3.1802,3.1825,3.1877,3.18,3.21,3.2107,3.2113,3.2136,3.2147,3.2155,0,0,0,0,0,3.117,3.1261,3.1262,3.129,3.1437,3.1543,3.1562,3.1594,3.1566,3.1612,3.1656,3.1654,3.1857,3.1814,3.1839,3.1894,3.2097,3.2105,3.2112,3.2132,3.2145,3.2155,0,0,0,0,0,0,3.1179,3.1273,3.1275,3.1396,3.1462,3.1543,3.1602,3.1606,3.168,3.1675,3.171,3.1729,3.1837,3.1877,3.1827,3.201,3.1974,3.1987,3.198,3.1993,3.2002,3.1989,3.1807,0,0,0,0,0,3.1195,3.1275,3.1352,3.1451,3.1484,3.1537,3.1585,3.1604,3.1672,3.1699,3.1752,3.1818,3.1896,3.1947,3.2023,3.2143,3.216,3.2193,3.2203,3.221,3.222,3.2284,3.2299,3.214,3.214,3.214,0,0,3.1229,3.129,3.1338,3.1454,3.1507,3.1587,3.156,3.1646,3.1705,3.1712,3.1818,3.1859,3.1935,3.2049,3.2102,3.2085,3.2268,3.222,3.2225,3.2231,3.2293,3.2308,3.2322,3.2145,3.2144,3.2144,0,0,3.1331,3.1387,3.1474,3.1528,3.1609,3.1643,3.1665,3.1746,3.1773,3.1881,3.1887,3.1957,3.2092,3.2145,3.219,3.2312,3.2311,3.2336,3.2385,3.2447,3.2459,3.247,3.2511,3.2526,3.2346,3.2346,3.2346,0,3.1363,3.1484,3.1519,3.1605,3.1654,3.1666,3.1754,3.1804,3.1905,3.1938,3.1919,3.2088,3.214,3.2266,3.2295,3.2332,3.2355,3.2325,3.2455,3.2466,3.2477,3.2517,3.2532,3.2348,3.2348,3.2348,3.2347,0,3.1518,3.1602,3.1663,3.1761,3.1818,3.1905,3.1951,3.2004,3.2018,3.2055,3.2163,3.2226,3.2314,3.2345,3.236,3.2473,3.246,3.2448,3.2411,3.2494,3.2531,3.2547,3.2351,3.2351,3.235,3.2349,0,0,3.1629,3.1744,3.1766,3.181,3.1899,3.1964,3.2051,3.2138,3.2182,3.2252,3.2324,3.2438,3.2426,3.2477,3.2498,3.2552,3.2642,3.2533,3.2535,3.2549,3.2767,3.2774,3.2791,3.2643,3.2646,3.2649,3.276,0,3.1738,3.1893,3.1926,3.2059,3.2136,3.2148,3.2223,3.2285,3.2321,3.2391,3.2431,3.251,3.2491,3.2521,3.2576,3.2619,3.2686,3.2612,3.2708,3.2711,3.2686,3.2811,3.2819,3.2921,3.2775,3.2778,3.278,0,3.1887,3.196,3.2101,3.2179,3.2213,3.228,3.2361,3.2428,3.2499,3.2521,3.2578,3.2592,3.2681,3.2642,3.2763,3.2712,3.2754,3.2781,3.2786,3.2794,3.2748,3.282,3.2955,3.2969,3.2804,3.2802,3.28,0,3.195,3.2084,3.2185,3.2223,3.2317,3.2364,3.2405,3.2473,3.2523,3.2594,3.2626,3.2707,3.275,3.2811,3.2847,3.2816,3.2964,3.2929,3.2983,3.2982,3.3012,3.3009,3.3153,3.3043,3.3043,3.3043,3.3042,0,3.2068,3.2153,3.2215,3.2277,3.2371,3.2409,3.2501,3.2542,3.2602,3.2671,3.2686,3.275,3.2794,3.2864,3.2892,3.2987,3.3007,3.3026,3.3032,3.3023,3.302,3.3049,3.3042,3.3047,3.3046,3.3045,3.3044,0,3.2154,3.2199,3.231,3.239,3.2412,3.2479,3.2547,3.2606,3.2643,3.273,3.2752,3.281,3.2892,3.2934,3.3038,3.3056,3.3162,3.3165,3.3138,3.314,3.3191,3.3185,3.3356,3.3379,3.3257,3.3258,3.3259,0,3.2225,3.229,3.2378,3.2426,3.2468,3.2545,3.2596,3.2634,3.2686,3.2771,3.282,3.2904,3.2973,3.3104,3.3154,3.3232,3.3236,3.329,3.3247,3.3236,3.3233,3.3228,3.3233,3.3297,3.3298,3.3299,3.33,0,3.2345,3.2364,3.2437,3.2518,3.2579,3.2644,3.2709,3.2747,3.2796,3.2853,3.2938,3.2992,3.3097,3.3179,3.3261,3.3302,3.3308,3.3313,3.333,3.332,3.33,3.3309,3.3156,3.3309,3.3308,3.3307,3.3307,3.3306,3.2424,3.2482,3.2552,3.2633,3.2686,3.2745,3.2805,3.2849,3.2921,3.301,3.3029,3.3118,3.3186,3.3297,3.334,3.341,3.3398,3.3422,3.3428,3.3432,3.3433,3.3292,3.3425,3.3425,3.3425,3.3425,3.3425,0,3.2542,3.2588,3.2662,3.2752,3.2815,3.2818,3.2889,3.2941,3.302,3.3083,3.315,3.3247,3.3326,3.3383,3.3463,3.3508,3.3513,3.3528,3.3523,3.3532,3.3441,3.3418,3.3522,3.3522,3.3522,3.3522,3.3522,3.3522,3.2611,3.2709,3.2736,3.2859,3.2904,3.2993,3.3033,3.3087,3.3138,3.3245,3.3312,3.3348,3.3408,3.3493,3.3566,3.358,3.3608,3.3622,3.3636,3.3549,3.3539,3.3529,3.3507,3.3628,3.3629,3.3721,3.3722,3.3722]},{"header":{"parameterUnit":"m.s-1","parameterCategory":1,"la1":30.2991,"la2":30.254,"lo1":-89.0895,"lo2":-89.0444,"dy":0.0017,"dx":0.0017,"nx":28,"ny":28,"refTime":"2025-06-10T03:00:00:Z","depth":0,"parameterNumber":3,"parameterNumberName":"V-component_of_WINDS"},"data":[0,0,0,0,0,0,0,0,0,0,0,0,0,0,0,0,0,0,0,0,0,0,0,0,0,0,0,0,0,0,0,0,0,0,0,0,0,0,0,0,0,0,0,0,0,0,0,0,0,0,0,0,0,0,0,0,0,0,1.9752,1.9752,0,1.977,1.9771,1.9771,1.9692,1.969,1.9688,1.9686,1.9705,1.9708,1.9711,0,0,0,0,0,0,0,0,0,0,0,0,0,1.9648,1.965,1.9752,1.9752,1.9752,1.977,1.9771,1.9771,1.9693,1.969,1.9687,1.9685,1.9704,1.9708,1.9711,0,0,0,0,0,0,0,0,0,0,0,0,0,1.9683,1.9651,1.9752,1.9715,1.9712,1.977,1.9771,1.9771,1.9693,1.969,1.9686,1.9683,1.9703,1.9707,1.9711,1.9805,0,0,1.9723,1.9725,0,0,0,0,0,0,0,0,1.9681,1.9686,1.9721,1.9718,1.9715,1.9725,1.9741,1.9782,1.9694,1.9701,1.9686,1.9682,1.9715,1.9718,1.9729,1.9806,1.9807,1.9724,1.9726,1.9728,1.9729,0,0,0,0,0,0,0,1.9678,1.9685,1.9759,1.9721,1.9718,1.9698,1.9699,1.9749,1.9727,1.97,1.9694,1.9697,1.9713,1.9725,1.9729,1.9807,1.9724,1.9727,1.973,1.9731,1.9961,1.9964,0,0,0,0,0,0,1.9681,1.9684,1.9758,1.976,1.9689,1.9703,1.9704,1.9726,1.9726,1.9723,1.97,1.9694,1.972,1.9724,1.9729,1.9838,1.9728,1.9732,1.9734,1.9957,1.9961,1.9965,0,0,0,0,0,0,1.9679,1.9688,1.9758,1.972,1.9727,1.9708,1.9733,1.9728,1.974,1.9727,1.9722,1.9717,1.9717,1.9723,1.9786,1.9838,1.9734,1.9737,1.9953,1.9958,1.9963,2.0057,0,0,0,0,0,0,1.9676,1.9688,1.9724,1.9722,1.973,1.9815,1.9736,1.9731,1.9747,1.9739,1.9741,1.9738,1.9715,1.9781,1.979,1.9841,1.974,1.9948,1.9955,1.9962,2.005,2.0066,2.0079,0,0,0,0,0,1.9673,1.975,1.9726,1.9736,1.9774,1.9818,1.9823,1.9795,1.9752,1.9787,1.9778,1.9738,1.983,1.9788,1.9798,1.9851,1.9945,1.9953,1.9961,2.0043,2.0062,2.0079,0,0,0,0,0,0,1.9759,1.9749,1.9722,1.9801,1.9811,1.9805,1.9849,1.9816,1.9839,1.983,1.9794,1.9795,1.9864,1.9864,1.9817,1.9941,1.988,1.9891,1.9939,1.9957,1.9972,1.997,1.9744,0,0,0,0,0,1.9788,1.9824,1.9813,1.9884,1.989,1.9869,1.9887,1.9864,1.9873,1.9877,1.9873,1.9883,1.9914,1.9936,1.9964,2.0049,2.0048,2.009,2.0105,2.0117,2.0127,2.0171,2.0189,1.9993,1.9993,1.9992,0,0,1.9847,1.9845,1.9871,1.9901,1.9906,1.9945,1.9873,1.9917,1.9946,1.9884,1.9943,1.994,1.9949,2.0023,2.0056,2.0025,2.0181,2.0128,2.0137,2.0141,2.0181,2.02,2.0216,1.9998,1.9997,1.9996,0,0,1.9973,1.9976,2.0035,2.0041,2.0049,2.0034,2.0048,2.0047,2.0043,2.0101,2.0055,2.0088,2.0143,2.0151,2.0162,2.029,2.0254,2.03,2.0377,2.042,2.0436,2.0449,2.0494,2.0511,2.031,2.031,2.031,0,2.0045,2.0102,2.0069,2.0116,2.013,2.0076,2.0134,2.0142,2.0159,2.017,2.0135,2.0202,2.0204,2.0279,2.031,2.0321,2.0336,2.03,2.0436,2.0449,2.0462,2.0504,2.0521,2.0316,2.0315,2.0314,2.0314,0,2.0189,2.0229,2.0275,2.0293,2.0312,2.0365,2.034,2.0363,2.0339,2.0327,2.0387,2.0387,2.0414,2.043,2.0407,2.0501,2.0482,2.0442,2.038,2.0486,2.0526,2.0542,2.0323,2.0321,2.032,2.0318,0,0,2.0372,2.037,2.0387,2.0394,2.0398,2.0428,2.0478,2.0503,2.0524,2.0537,2.0578,2.0624,2.0587,2.06,2.0577,2.0615,2.0715,2.057,2.057,2.0597,2.0819,2.0849,2.0868,2.0691,2.0694,2.0697,2.0818,0,2.0496,2.0581,2.0552,2.0638,2.0674,2.0622,2.0665,2.0672,2.0663,2.0691,2.068,2.0714,2.0663,2.067,2.0705,2.0696,2.0759,2.0687,2.0728,2.073,2.0728,2.0889,2.0921,2.1035,2.0833,2.0836,2.0838,0,2.0652,2.0671,2.076,2.0757,2.0771,2.0811,2.0831,2.0859,2.0866,2.0856,2.087,2.0838,2.0886,2.0824,2.0889,2.084,2.0855,2.0853,2.0857,2.0859,2.0791,2.0896,2.1071,2.1089,2.0862,2.086,2.0858,0,2.0776,2.0823,2.0883,2.089,2.0888,2.0917,2.0917,2.0921,2.0937,2.0955,2.0965,2.0989,2.1002,2.102,2.0995,2.0952,2.1064,2.1,2.1057,2.1058,2.1083,2.1082,2.1264,2.1093,2.1093,2.1093,2.1092,0,2.0917,2.0974,2.0938,2.0975,2.1036,2.1002,2.1064,2.1059,2.1062,2.1096,2.1053,2.1086,2.1051,2.1081,2.1061,2.1118,2.1124,2.1117,2.1112,2.1121,2.1122,2.1131,2.1122,2.1097,2.1096,2.1095,2.1095,0,2.1066,2.1044,2.1105,2.1098,2.1097,2.1143,2.1137,2.117,2.1157,2.1201,2.1209,2.1189,2.1221,2.1198,2.1231,2.1217,2.1292,2.1275,2.129,2.1285,2.1343,2.1338,2.1537,2.1561,2.1376,2.1377,2.1379,0,2.1157,2.1199,2.1196,2.1216,2.1219,2.1251,2.1268,2.1236,2.1255,2.1265,2.1297,2.1325,2.1347,2.1401,2.1389,2.1414,2.1397,2.1465,2.14,2.1408,2.1397,2.1395,2.1399,2.1478,2.148,2.1482,2.1483,0,2.1322,2.1308,2.1334,2.1355,2.1376,2.1392,2.1404,2.1422,2.139,2.1413,2.1445,2.1462,2.1494,2.1523,2.1543,2.1543,2.1508,2.1504,2.1518,2.1528,2.1535,2.1532,2.1325,2.1499,2.1498,2.1496,2.1496,2.1495,2.1444,2.1479,2.1482,2.1511,2.1516,2.1528,2.1559,2.1549,2.1575,2.1599,2.1579,2.1617,2.1622,2.1644,2.1649,2.1679,2.1651,2.1672,2.1677,2.1683,2.1691,2.153,2.1682,2.1682,2.1681,2.1681,2.168,0,2.1606,2.1605,2.1632,2.165,2.1673,2.1637,2.1648,2.1669,2.1704,2.1711,2.1732,2.1769,2.1796,2.1786,2.181,2.1836,2.182,2.1843,2.1841,2.1842,2.1715,2.17,2.1855,2.1855,2.1855,2.1855,2.1855,2.1855,2.1693,2.1749,2.1736,2.1795,2.1793,2.183,2.1839,2.185,2.1855,2.1898,2.192,2.1913,2.1913,2.1936,2.196,2.1956,2.1967,2.1996,2.1986,2.1868,2.1851,2.1834,2.182,2.1998,2.1999,2.2111,2.2112,2.2112]}]]